This is the latest recevied weather packets stored in our database for station/object KD2ZLA. If no packets are shown the sender has not sent any weather packets the latest 10 day(s).
| Time | Temp. | Humidity | Pressure | Rain* | Wind** | Luminosity | Snow |
|---|---|---|---|---|---|---|---|
| 1777842899 | 12.22° C | 34% | 1007.7 hPa | 0 mm | - | 301 W/m² | - |
| 1777842594 | 12.22° C | 34% | 1007.9 hPa | 0 mm | - | 197 W/m² | - |
| 1777842292 | 11.67° C | 34% | 1007.7 hPa | 0 mm | - | 312 W/m² | - |
| 1777841992 | 12.22° C | 34% | 1007.8 hPa | 0 mm | - | 382 W/m² | - |
| 1777841689 | 12.78° C | 33% | 1007.6 hPa | 0 mm | - | 463 W/m² | - |
| 1777841385 | 12.78° C | 35% | 1007.6 hPa | 0 mm | - | 243 W/m² | - |
| 1777841082 | 12.78° C | 35% | 1007.6 hPa | 0 mm | - | 507 W/m² | - |
| 1777840779 | 12.22° C | 34% | 1007.7 hPa | 0 mm | - | 242 W/m² | - |
| 1777840477 | 12.78° C | 33% | 1007.7 hPa | 0 mm | - | 125 W/m² | - |
| 1777840173 | 12.78° C | 32% | 1007.7 hPa | 0 mm | - | 130 W/m² | - |
| 1777839872 | 12.22° C | 33% | 1007.8 hPa | 0 mm | - | 630 W/m² | - |
| 1777839570 | 12.78° C | 32% | 1007.8 hPa | 0 mm | - | 640 W/m² | - |
| 1777839267 | 12.78° C | 36% | 1007.7 hPa | 0 mm | - | 629 W/m² | - |
| 1777838964 | 11.67° C | 33% | 1007.7 hPa | 0 mm | - | 657 W/m² | - |
| 1777838660 | 12.78° C | 33% | 1007.8 hPa | 0 mm | - | 122 W/m² | - |
| 1777838357 | 12.78° C | 35% | 1007.8 hPa | 0 mm | - | 655 W/m² | - |
| 1777838055 | 12.22° C | 35% | 1007.9 hPa | 0 mm | - | 680 W/m² | - |
| 1777837751 | 12.22° C | 35% | 1007.9 hPa | 0 mm | - | 719 W/m² | - |
| 1777837448 | 12.78° C | 33% | 1008.3 hPa | 0 mm | - | 743 W/m² | - |
| 1777837143 | 11.67° C | 35% | 1008.3 hPa | 0 mm | - | 805 W/m² | - |
| 1777836839 | 11.67° C | 34% | 1008.2 hPa | 0 mm | - | 829 W/m² | - |
| 1777836535 | 11.67° C | 35% | 1008.6 hPa | 0 mm | - | 274 W/m² | - |
| 1777836230 | 11.67° C | 36% | 1008.6 hPa | 0 mm | - | 301 W/m² | - |
| 1777835927 | 11.11° C | 37% | 1008.6 hPa | 0 mm | - | 330 W/m² | - |
| 1777835625 | 11.11° C | 36% | 1008.8 hPa | 0 mm | - | 238 W/m² | - |
* Rain latest hour (hover to see other rain measurements)
** Current wind speed in m/s (hover to see current wind gust speed)